This demonstration page uses our WeatherBlox Daily Observations layout. Learn more.

Left ArrowRight Arrow

44.31136, -96.79839

Hourly Observations for June 9, 2019

Temp ( °F °C ) Dew Point ( °F °C ) Humidity (%) Winds ( mph kmh ) Pressure ( in mb ) Visibility ( mi km ) Precip ( " mm )
12:29 am 00:29 Cloudy with Light Rain 61 16 61 16 100 100 NW 14 22 29.96 1015 5 8 0.00 0.03
12:41 am 00:41 Cloudy with Light Rain 61 16 59 15 94 94 NW 7 11 29.97 1015 9 14 0.00 0.03
12:56 am 00:56 Cloudy 59 15 58 14.4 96 96 NNW 14 22 30.01 1016 10 16 0.00 0.03
1:56 am 01:56 Cloudy 57 13.9 55 12.8 93 93 NNW 13 20 30.04 1017 10 16 0.01 0.25
2:19 am 02:19 Cloudy 55 13 54 12 94 94 NW 17 28 30.02 1017 10 16 0.00 0.00
2:25 am 02:25 Cloudy 55 13 54 12 94 94 NW 17 28 30.02 1017 10 16 0.00 0.00
2:41 am 02:41 Cloudy 55 13 54 12 94 94 NW 16 26 30.03 1017 10 16 0.00 0.00
2:56 am 02:56 Cloudy with Light Rain 56 13.3 54 12.2 93 93 NW 17 28 30.06 1018 10 16 0.00 0.03
2:58 am 02:58 Cloudy with Light Rain 55 13 54 12 94 94 NW 16 26 30.03 1017 10 16 0.00 0.03
3:17 am 03:17 Cloudy with Light Rain 55 13 54 12 94 94 NW 15 24 N/A 7 11 0.00 0.03
3:56 am 03:56 Cloudy with Light Rain 54 12.2 49 9.4 83 83 NNW 18 30 30.07 1018 10 16 0.01 0.25
4:56 am 04:56 Mostly Cloudy 54 12.2 49 9.4 83 83 NNW 15 24 30.09 1019 10 16 0.00 0.03
5:31 am 05:31 Cloudy 54 12 48 9 82 82 NNW 13 20 30.09 1019 10 16 0.00 0.00
5:56 am 05:56 Cloudy 54 12.2 50 10 87 87 N 12 19 30.11 1020 10 16 0.00 0.00
6:56 am 06:56 Cloudy 54 12.2 49 9.4 83 83 NW 15 24 30.17 1022 10 16 0.01 0.25
7:05 am 07:05 Cloudy 54 12 48 9 82 82 NW 14 22 30.15 1021 10 16 0.00 0.00
8:56 am 08:56 Mostly Cloudy 56 13.3 47 8.3 72 72 NW 15 24 30.16 1022 10 16 0.00 0.00
9:56 am 09:56 Cloudy 55 12.8 47 8.3 74 74 NW 18 30 30.22 1023 10 16 0.00 0.00
10:56 am 10:56 Cloudy 57 13.9 48 8.9 72 72 NW 13 20 30.22 1024 10 16 0.01 0.25
11:56 am 11:56 Mostly Cloudy 58 14.4 48 8.9 70 70 NW 13 20 30.24 1024 10 16 0.00 0.00
12:56 pm 12:56 Mostly Sunny 60 15.6 47 8.3 62 62 NW 16 26 30.24 1024 10 16 0.00 0.00
1:56 pm 13:56 Mostly Sunny 65 18.3 45 7.2 49 49 NW 18 30 30.24 1024 10 16 0.00 0.00
2:56 pm 14:56 Partly Cloudy 66 18.9 41 5 40 40 NW 21 33 30.23 1024 10 16 0.00 0.00
3:56 pm 15:56 Mostly Cloudy 67 19.4 40 4.4 37 37 NNW 17 28 30.24 1024 10 16 0.00 0.00
4:56 pm 16:56 Partly Cloudy 67 19.4 38 3.3 35 35 NW 18 30 30.25 1024 10 16 0.00 0.00
5:56 pm 17:56 Mostly Sunny 67 19.4 39 3.9 36 36 NW 20 31 30.25 1024 10 16 0.00 0.00
6:56 pm 18:56 Sunny 67 19.4 39 3.9 36 36 NW 15 24 30.25 1025 10 16 0.00 0.00
7:56 pm 19:56 Sunny 65 18.3 39 3.9 39 39 NW 12 19 30.27 1025 10 16 0.00 0.00
8:56 pm 20:56 Sunny 61 16.1 38 3.3 43 43 NW 12 19 30.28 1025 10 16 0.00 0.00
9:56 pm 21:56 Clear 56 13.3 39 3.9 53 53 NW 8 13 30.30 1026 10 16 0.00 0.00
10:56 pm 22:56 Clear 54 12.2 41 5 62 62 WNW 7 11 30.32 1027 10 16 0.00 0.00
11:56 pm 23:56 Clear 52 11.1 42 5.6 69 69 Calm 30.32 1027 10 16 0.00 0.00

Powered by AerisWeather